GPS BIIR-11

Last updated on Nov. 13, 2019, 4:20 a.m. UTC

1 28190U 04009A   19315.82289711 -.00000069  00000-0  00000+0 0  9995
2 28190  56.2804  11.3425 0090005  87.5391 321.3613  2.00566214114652
UTC
Height (km)
Latitude
Longitude
Inclination
Orbital Period
UTC large
Height (km)
Speed (km/s)
/
Latitude / Longitude
Inclination (degrees)
Orbital Period (minutes)
Azimuth
Elevation
Range (km)
Doppler Factor
iOS Compass Heading
iOS Angle

Next 30 passes for location: Hong Kong

Rise time Rise Azimuth (degrees) Set time Set Azimuth (degrees) Duration Max altitude (degrees)

No matching passes for this satellites